Location: Unspecified
(0.0000°N, 0.0000°E)
Time: 06:01:12
(UTC+00:00)

Courier 1B - Pass Details

Date: 26 September 2023
Orbit: 962 x 1208 km, 28.3° (Epoch: 06 December)

Event Time Altitude Azimuth Distance (km) Brightness Sun altitude
Rises 06:55:43 0° 215° (SW) 3,720 10.2 16.0°
Reaches altitude 10° 06:59:12 10° 198° (SSW) 2,809 9.8 16.9°
Maximum altitude 07:03:56 20° 153° (SSE) 2,244 9.9 18.1°
Drops below altitude 10° 07:08:52 10° 110° (ESE) 2,932 11.7 19.3°
Sets 07:12:35 0° 93° (E) 3,939 12.3 20.3°
